Location: Hurstbourne Priors
(51.2000°N, 1.3667°W)
Time: 21:05:11
(UTC+00:00)

Altair - Pass Details

Date: 20 April 2021
Orbit: 1501 x 1683 km, 47.2° (Epoch: 13 May)

Event Time Altitude Azimuth Distance (km) Brightness Sun altitude
Rises 11:08:56 0° 284° (WNW) 4,775 9.9 48.9°
Reaches altitude 10° 11:12:12 10° 279° (W) 3,763 9.5 49.1°
Maximum altitude 11:21:03 46° 210° (SSW) 1,958 9.3 49.5°
Drops below altitude 10° 11:29:38 10° 141° (SE) 3,654 10.3 49.9°
Sets 11:32:46 0° 135° (SE) 4,626 10.5 50.0°
